Location: Newark
(2.1500°N, 12.1333°E)
Time: 22:08:43
(UTC+00:00)

ISS - Visible Passes

Search period start: 17 November 2019 00:00
Search period end: 27 November 2019 00:00
Orbit: 412 x 421 km, 51.6° (Epoch: 18 November)

Date Brightness Start Highest point End Pass type
(mag) Time Alt. Az. Time Alt. Az. Time Alt. Az.
18 Nov -2.7 04:05:38 10° NNW 04:08:49 42° NE 04:12:01 10° SE visible
18 Nov -1.0 17:20:20 10° W 17:22:09 14° NW 17:23:59 10° NNW visible
19 Nov -1.4 03:19:54 18° NE 03:20:28 18° NE 03:22:53 10° E visible
20 Nov -2.8 04:07:09 21° W 04:08:40 31° SW 04:11:41 10° S visible
21 Nov -2.7 03:21:22 41° SSE 03:21:22 41° SSE 03:23:40 10° SSE visible
